Location: Santa Barbara
(34.4500°N, 119.7700°W)
Time: 23:08:12
(UTC-07:00)

Cosmos 1626 Rocket - Visible Passes

Search period start: 30 April 2016 00:00
Search period end: 10 May 2016 00:00
Orbit: 604 x 631 km, 82.5° (Epoch: 29 April)

Date Brightness Start Highest point End Pass type
(mag) Time Alt. Az. Time Alt. Az. Time Alt. Az.
01 May 6.8 01:04:20 11° N 01:04:20 11° N 01:04:28 10° N visible
02 May 6.8 01:20:59 11° NNW 01:20:59 11° NNW 01:21:05 10° N visible
04 May 6.7 00:17:09 11° NNE 00:17:09 11° NNE 00:17:17 10° NNE visible
05 May 6.6 00:33:46 13° N 00:33:46 13° N 00:34:14 10° N visible
06 May 6.6 00:50:23 13° NNW 00:50:23 13° NNW 00:50:52 10° N visible
07 May 6.7 01:06:58 10° NNW 01:06:58 10° NNW 01:07:02 10° NNW visible
07 May 6.4 23:46:26 14° NNE 23:46:26 14° NNE 23:47:04 10° NNE visible
09 May 6.3 00:03:00 17° N 00:03:00 17° N 00:04:01 10° N visible
